Hourly Data Report for October 05, 2017

All times are specified in Local Standard Time (LST). Add 1 hour to adjust for Daylight Saving Time where and when it is observed.

KUGAARUK CLIMATE
NUNAVUT

68°32'15.060" N
89°47'47.020" W
15.80 m
2303094
71407
NBB

Download Data

Hourly Data (October 2017)
Hourly Data Report for October 5, 2017
Temp Definition
°C
Dew Point Temp Definition
°C
Rel Hum Definition
%
Wind Dir Definition
10's deg

Wind Spd Definition
km/h
Visibility Definition
km
Stn Press Definition
kPa
Hmdx Definition


Wind Chill Definition


Weather Definition


TIME
00:00 -6.1 -8.0 87 2 15   98.67   -12 LegendNANA
01:00 -4.3 -6.3 86 3 19   98.71   -10 LegendNANA
02:00 -3.8 -5.5 88 1 23   98.79   -11 LegendNANA
03:00 -3.4 -4.9 89 2 25   98.84   -10 LegendNANA
04:00 -3.2 -5.6 84 3 28   98.94   -10 LegendNANA
05:00 -3.5 -5.5 86 2 30   98.99   -11 LegendNANA
06:00 -3.2 -4.8 89 1 30   99.07   -11 LegendNANA
07:00 -3.0 -4.5 89 2 30   99.10   -10 LegendNANA
08:00 -2.6 -4.1 89 2 27   99.16   -10 LegendNANA
09:00 -2.2 -4.8 83 2 28   99.22   -9 LegendNANA
10:00 -2.1 -4.9 81 3 33   99.24   -10 LegendNANA
11:00 -2.1 -4.4 84 3 35   99.30   -10 LegendNANA
12:00 -2.1 -4.5 84 4 37   99.33   -10 LegendNANA
13:00 -1.9 -4.4 83 4 31   99.39   -9 LegendNANA
14:00 -2.5 -5.0 83 3 27   99.51   -9 LegendNANA
15:00 -1.9 -4.0 86 4 34   99.58   -9 LegendNANA
16:00 -3.5 -5.4 87 3 31   99.64   -11 LegendNANA
17:00 -4.1 -6.3 85 4 26   99.69   -11 LegendNANA
18:00 -3.8 -5.8 86 3 22   99.73   -10 LegendNANA
19:00 -3.6 -5.9 84 2 21   99.79   -10 LegendNANA
20:00 -4.1 -6.3 85 3 23   99.79   -11 LegendNANA
21:00 -4.6 -6.5 87 4 19   99.81   -11 LegendNANA
22:00 -5.1 -6.7 89 5 14   99.82   -10 LegendNANA
23:00 -4.5 -5.9 90 2 21   99.84   -11 LegendNANA

Notes on Data Quality.

Legend

  • E = Estimated
  • M = Missing
  • NA = Not Available
  • ‡ = Partner data that is not subject to review by the National Climate Archives
Date modified: